Weather in Kovrovo

Russia / Kaliningrad Oblast     54°54′34″N   20°24′08″E
temp.,
°C
wind,
m/s
gust,
m/s
humid.,
%
clouds,
%
prec.,
mm/h
press.,
hPa
HPBL,
m
11 april, sun
sun1123:00+4se1171100 0.0 102012
02:00+4ese2272100 0.0 102043
05:00+4e4578100 0.0 1020145
08:00+4e6991100 0.0 1020262
11:00+5e7990100 0.0 1019149
14:00+9ese6882100 0.0 101794
17:00+11se6877100 0.0 101561
20:00+10se6682100 0.0 101541
12 april, mon
mon1223:00+9sse7980100 0.0 101668
02:00+9sse7982100 0.0 101570
05:00+9sse71083100 0.0 101591
08:00+9sse7985100 0.0 101682
11:00+8wsw3390100 0.0 101740
14:00+4nw6895100 0.5 1019314
17:00+3nw81092100 0.9 1020566
20:00+3wnw61092100 2.4 1022563
13 april, tue
tue1323:00+4w71086100 0.1 1022420
02:00+4wnw698798 0.1 1023284
05:00+4w6108380 0.0 1024288
08:00+4w6983100 0.0 1025326
11:00+4w6776100 0.0 1025329
14:00+4wnw5878100 0.0 1026384
17:00+4wnw4783100 0.0 1025380
20:00+4w3588100 0.0 1025277
14 april, wed
wed1423:00+4w4587100 0.0 1025229
02:00+4w4687100 0.0 1024202
05:00+4wnw458799 0.0 1024151
08:00+4nnw3484100 0.0 1024124
11:00+4n4585100 0.0 1024265
14:00+4n7986100 0.0 1024352
17:00+4n101382100 0.0 1024373
20:00+4n11148099 0.0 1024418
15 april, thu
thu1523:00+4nne101283100 0.0 1024430
02:00+4nne91283100 0.0 1024457
05:00+3nne101275100 0.0 1024459
08:00+3nne111373100 0.0 1025457
11:00+4nne10127692 0.0 1025490
14:00+4n9128264 0.0 1024292
17:00+4n11148399 0.0 1024205
20:00+6nne81376100 0.0 1024200